CW8507 Weather Reports


time (UTC)temp
C
wind
direction
speed
KPH
gust
KPH
rain 1hr
cm
rain 24hr
cm
rain mn
cm
humidity
%
barometer
mb
20260505034444 18 134 0.0 0.0 0.00 0.00 0.00 40 1008.8
20260505032943 20 134 0.0 1.6 0.00 0.00 0.00 37 1008.5
20260505031445 21 72 1.6 4.8 0.00 0.00 0.00 32 1008.4
20260505025943 21 124 1.6 11.3 0.00 0.00 0.00 31 1008.1
20260505024444 22 40 1.6 9.7 0.00 0.00 0.00 30 1008.1
20260505022944 22 105 3.2 9.7 0.00 0.00 0.00 28 1008.1
20260505021444 23 127 4.8 14.5 0.00 0.00 0.00 27 1008.1
20260505015946 23 118 4.8 12.9 0.00 0.00 0.00 27 1008.0
20260505014443 23 46 6.4 19.3 0.00 0.00 0.00 26 1007.9
20260505012944 23 110 3.2 16.1 0.00 0.00 0.00 26 1008.1
20260505011446 24 75 4.8 17.7 0.00 0.00 0.00 26 1008.2
20260505005945 24 79 6.4 16.1 0.00 0.00 0.00 27 1008.0
20260505004445 24 84 8.0 19.3 0.00 0.00 0.00 26 1008.1
20260505002944 25 125 8.0 22.5 0.00 0.00 0.00 26 1008.1
20260505001446 25 193 4.8 11.3 0.00 0.00 0.00 27 1008.1
20260504235946 25 23 6.4 12.9 0.00 0.00 0.00 26 1008.1
20260504234445 25 115 1.6 14.5 0.00 0.00 0.00 27 1008.1
20260504232944 25 212 4.8 14.5 0.00 0.00 0.00 26 1008.0
20260504231444 25 213 3.2 12.9 0.00 0.00 0.00 25 1008.0
20260504225945 26 66 3.2 8.0 0.00 0.00 0.00 26 1008.2
20260504224445 25 113 4.8 19.3 0.00 0.00 0.00 27 1008.3
20260504222946 25 44 8.0 19.3 0.00 0.00 0.00 27 1008.5
20260504221443 26 114 6.4 16.1 0.00 0.00 0.00 26 1008.3
20260504215945 25 58 3.2 8.0 0.00 0.00 0.00 28 1008.5
20260504214445 25 58 4.8 12.9 0.00 0.00 0.00 27 1008.5
20260504212947 25 43 4.8 9.7 0.00 0.00 0.00 26 1008.7
20260504211446 25 35 4.8 11.3 0.00 0.00 0.00 28 1008.9
20260504205946 25 47 3.2 11.3 0.00 0.00 0.00 29 1008.8
20260504204445 25 137 3.2 17.7 0.00 0.00 0.00 28 1008.9
20260504202945 25 130 4.8 12.9 0.00 0.00 0.00 27 1008.9
20260504201446 25 83 3.2 12.9 0.00 0.00 0.00 29 1009.0
20260504195946 24 143 3.2 11.3 0.00 0.00 0.00 29 1009.0
20260504194445 24 12 4.8 16.1 0.00 0.00 0.00 31 1009.0
20260504192947 23 58 6.4 16.1 0.00 0.00 0.00 32 1009.1
20260504191447 23 148 4.8 11.3 0.00 0.00 0.00 32 1009.4
20260504185947 23 120 6.4 14.5 0.00 0.00 0.00 32 1009.5
20260504184446 23 42 4.8 9.7 0.00 0.00 0.00 33 1009.7
20260504182944 22 50 6.4 16.1 0.00 0.00 0.00 32 1009.6
20260504181446 22 146 4.8 16.1 0.00 0.00 0.00 36 1009.6
20260504175948 21 58 4.8 17.7 0.00 0.00 0.00 35 1009.7
20260504174448 21 351 3.2 11.3 0.00 0.00 0.00 36 1009.6
20260504172945 21 49 3.2 11.3 0.00 0.00 0.00 37 1009.7
20260504171446 20 47 4.8 14.5 0.00 0.00 0.00 42 1009.7
20260504081447 10 160 0.0 0.0 0.00 0.00 0.00 76 1008.7
20260504045949 13 141 0.0 0.0 0.00 0.00 0.00 64 1009.0
20260504044449 14 141 0.0 0.0 0.00 0.00 0.00 62 1009.1
20260504042949 14 141 0.0 0.0 0.00 0.00 0.00 62 1009.1
20260504041449 15 176 0.0 0.0 0.00 0.00 0.00 60 1009.0
20260504035949 16 176 0.0 0.0 0.00 0.00 0.00 57 1009.1